Weather History for KMRJ - February, 2013

Change the Weather History Date:

Saturday, February 23, 2013

  Actual Average (KLNR) Record (KLNR)
Temperature  
Mean Temperature 26 °F -  
Max Temperature 30 °F 34 °F 50 °F (2002)
Min Temperature 19 °F 19 °F -15 °F (2015)
Degree Days  
Heating Degree Days 40    
Moisture  
Dew Point 18 °F    
Average Humidity 76    
Maximum Humidity 86    
Minimum Humidity 64    
Precipitation  
Precipitation 0.00 in - - ()
Sea Level Pressure  
Sea Level Pressure 29.86 in    
Wind  
Wind Speed 10 mph (WSW)    
Max Wind Speed 14 mph    
Max Gust Speed 16 mph    
Visibility 10 miles    
Events Snow    
Averages and records for this station are not official NWS values.
T = Trace of Precipitation, MM = Missing Value Source: NWS Daily Summary

Daily Weather History Graph

Daily Weather History Graph

Search for Another Location

Airport or City:

Trip Planner

Search our weather history database for the weather conditions in past years. The results will help you decide how hot, cold, wet, or windy it might be!

Date:

Astronomy

Feb. 23, 2013 Rise Set
Actual Time 6:45 AM CST 5:43 PM CST
Civil Twilight 6:17 AM CST 6:11 PM CST
Nautical Twilight 5:44 AM CST 6:44 PM CST
Astronomical Twilight 5:11 AM CST 7:17 PM CST
Moon 3:52 PM CST (2/23) 5:10 AM CST (2/23)
Length of Visible Light 11h 54m
Length of Day
10h 57m
Waxing Gibbous, 95% of the Moon is Illuminated
Feb 23
Waxing Gibbous
Feb 25
Full
Mar 4
Last Quarter
Mar 11
New
Mar 19
First Quarter

Hourly Weather History & Observations

Time (CST) Temp. Windchill Dew Point Humidity Pressure Visibility Wind Dir Wind Speed Gust Speed Precip Events Conditions
12:15 AM 26.6 °F 17.5 °F 21.2 °F 80% 29.84 in 10.0 mi WSW 9.2 mph - N/A   Overcast
12:35 AM 26.6 °F 18.2 °F 19.4 °F 74% 29.83 in 10.0 mi WSW 8.1 mph - N/A   Overcast
12:55 AM 26.6 °F 18.2 °F 21.2 °F 80% 29.84 in 10.0 mi WSW 8.1 mph - N/A   Overcast
1:15 AM 26.6 °F 17.5 °F 21.2 °F 80% 29.84 in 10.0 mi WSW 9.2 mph - N/A Snow Light Snow
1:35 AM 26.6 °F 18.2 °F 21.2 °F 80% 29.84 in 10.0 mi WSW 8.1 mph - N/A Snow Light Snow
1:55 AM 26.6 °F 16.2 °F 21.2 °F 80% 29.84 in 10.0 mi WSW 11.5 mph - N/A Snow Light Snow
2:15 AM 26.6 °F 18.2 °F 21.2 °F 80% 29.84 in 10.0 mi WSW 8.1 mph - N/A Snow Light Snow
2:35 AM 24.8 °F 14.6 °F 21.2 °F 86% 29.83 in 10.0 mi WSW 10.4 mph - N/A Snow Light Snow
2:55 AM 24.8 °F 14.0 °F 21.2 °F 86% 29.83 in 10.0 mi WSW 11.5 mph - N/A Snow Light Snow
3:15 AM 24.8 °F 14.6 °F 21.2 °F 86% 29.84 in 7.0 mi West 10.4 mph - N/A Snow Light Snow
3:35 AM 24.8 °F 14.0 °F 21.2 °F 86% 29.83 in 7.0 mi WSW 11.5 mph - N/A Snow Light Snow
3:55 AM 24.8 °F 14.0 °F 19.4 °F 80% 29.83 in 7.0 mi WSW 11.5 mph - N/A Snow Light Snow
4:15 AM 24.8 °F 14.0 °F 19.4 °F 80% 29.83 in 7.0 mi WSW 11.5 mph - N/A Snow Light Snow
4:35 AM 23.0 °F 11.1 °F 19.4 °F 86% 29.83 in 10.0 mi WSW 12.7 mph - N/A Snow Light Snow
4:55 AM 23.0 °F 12.4 °F 19.4 °F 86% 29.84 in 10.0 mi West 10.4 mph - N/A Snow Light Snow
5:15 AM 23.0 °F 11.1 °F 19.4 °F 86% 29.84 in 10.0 mi WSW 12.7 mph - N/A Snow Light Snow
5:55 AM 23.0 °F 13.1 °F 19.4 °F 86% 29.85 in 10.0 mi WSW 9.2 mph - N/A Snow Light Snow
6:15 AM 23.0 °F 13.9 °F 19.4 °F 86% 29.85 in 10.0 mi West 8.1 mph - N/A   Overcast
6:35 AM 23.0 °F 13.1 °F 19.4 °F 86% 29.85 in 10.0 mi WSW 9.2 mph - N/A Snow Light Snow
6:55 AM 23.0 °F 13.1 °F 19.4 °F 86% 29.86 in 10.0 mi WSW 9.2 mph - N/A Snow Light Snow
7:15 AM 23.0 °F 14.7 °F 17.6 °F 80% 29.86 in 7.0 mi WSW 6.9 mph - N/A Snow Light Snow
7:35 AM 21.2 °F 11.7 °F 17.6 °F 86% 29.86 in 10.0 mi WSW 8.1 mph - N/A Snow Light Snow
7:55 AM 21.2 °F 10.1 °F 17.6 °F 86% 29.86 in 10.0 mi WSW 10.4 mph - N/A   Overcast
8:15 AM 23.0 °F 13.1 °F 17.6 °F 80% 29.86 in 10.0 mi WSW 9.2 mph - N/A Snow Light Snow
8:55 AM 23.0 °F 10.6 °F 17.6 °F 80% 29.86 in 10.0 mi WSW 13.8 mph - N/A Snow Light Snow
9:15 AM 23.0 °F 12.4 °F 17.6 °F 80% 29.86 in 10.0 mi WSW 10.4 mph - N/A Snow Light Snow
9:55 AM 23.0 °F 12.4 °F 17.6 °F 80% 29.86 in 10.0 mi WSW 10.4 mph - N/A Snow Light Snow
10:15 AM 23.0 °F 11.7 °F 17.6 °F 80% 29.86 in 10.0 mi WSW 11.5 mph - N/A   Overcast
10:35 AM 24.8 °F 14.0 °F 17.6 °F 74% 29.86 in 10.0 mi WSW 11.5 mph 16.1 mph N/A   Overcast
10:55 AM 24.8 °F 14.6 °F 17.6 °F 74% 29.87 in 10.0 mi WSW 10.4 mph - N/A   Overcast
11:15 AM 26.6 °F 16.2 °F 17.6 °F 69% 29.87 in 10.0 mi WSW 11.5 mph - N/A   Overcast
11:35 AM 26.6 °F 16.2 °F 17.6 °F 69% 29.87 in 10.0 mi WSW 11.5 mph - N/A   Overcast
11:55 AM 26.6 °F 16.8 °F 17.6 °F 69% 29.87 in 10.0 mi WSW 10.4 mph - N/A   Overcast
12:15 PM 26.6 °F 16.2 °F 17.6 °F 69% 29.87 in 10.0 mi WSW 11.5 mph - N/A   Overcast
12:35 PM 28.4 °F 18.5 °F 17.6 °F 64% 29.86 in 10.0 mi WSW 11.5 mph - N/A   Overcast
12:55 PM 28.4 °F 18.0 °F 17.6 °F 64% 29.86 in 10.0 mi West 12.7 mph - N/A   Scattered Clouds
1:15 PM 28.4 °F 17.5 °F 17.6 °F 64% 29.85 in 10.0 mi West 13.8 mph - N/A   Scattered Clouds
1:35 PM 28.4 °F 19.1 °F 17.6 °F 64% 29.85 in 10.0 mi West 10.4 mph - N/A   Clear
1:55 PM 28.4 °F 19.1 °F 17.6 °F 64% 29.84 in 10.0 mi West 10.4 mph - N/A   Clear
2:15 PM 28.4 °F 19.1 °F 17.6 °F 64% 29.84 in 10.0 mi WSW 10.4 mph - N/A   Clear
2:55 PM 28.4 °F 19.7 °F 17.6 °F 64% 29.85 in 10.0 mi WSW 9.2 mph - N/A   Scattered Clouds
3:15 PM 28.4 °F 19.1 °F 19.4 °F 69% 29.85 in 10.0 mi SW 10.4 mph - N/A   Scattered Clouds
3:35 PM 30.2 °F 22.6 °F 19.4 °F 64% 29.85 in 10.0 mi WSW 8.1 mph - N/A   Clear
3:55 PM 28.4 °F 19.1 °F 19.4 °F 69% 29.85 in 10.0 mi WSW 10.4 mph - N/A   Clear
4:15 PM 28.4 °F 19.1 °F 17.6 °F 64% 29.85 in 10.0 mi WSW 10.4 mph - N/A   Clear
4:35 PM 28.4 °F 19.7 °F 17.6 °F 64% 29.85 in 10.0 mi WSW 9.2 mph - N/A   Clear
4:55 PM 26.6 °F 17.5 °F 17.6 °F 69% 29.86 in 10.0 mi WSW 9.2 mph - N/A   Clear
5:15 PM 26.6 °F 18.2 °F 17.6 °F 69% 29.86 in 10.0 mi WSW 8.1 mph - N/A   Clear
5:35 PM 26.6 °F 17.5 °F 17.6 °F 69% 29.87 in 10.0 mi WSW 9.2 mph - N/A   Clear
5:55 PM 26.6 °F 19.1 °F 17.6 °F 69% 29.87 in 10.0 mi WSW 6.9 mph - N/A   Clear
6:15 PM 24.8 °F 19.1 °F 17.6 °F 74% 29.88 in 10.0 mi SW 4.6 mph - N/A   Clear
6:35 PM 24.8 °F 16.1 °F 17.6 °F 74% 29.88 in 10.0 mi WSW 8.1 mph - N/A   Clear
6:55 PM 23.0 °F 14.7 °F 17.6 °F 80% 29.89 in 10.0 mi SW 6.9 mph - N/A   Clear
7:15 PM 23.0 °F 18.4 °F 15.8 °F 74% 29.90 in 10.0 mi SW 3.5 mph - N/A   Mostly Cloudy
7:55 PM 23.0 °F 15.8 °F 15.8 °F 74% 29.91 in 10.0 mi WSW 5.8 mph - N/A   Overcast
8:15 PM 23.0 °F 14.7 °F 17.6 °F 80% 29.91 in 10.0 mi WSW 6.9 mph - N/A   Overcast
9:15 PM 23.0 °F 13.9 °F 15.8 °F 74% 29.92 in 10.0 mi West 8.1 mph - N/A   Overcast
9:35 PM 23.0 °F 15.8 °F 15.8 °F 74% 29.92 in 10.0 mi WSW 5.8 mph - N/A   Overcast
9:55 PM 23.0 °F 14.7 °F 15.8 °F 74% 29.92 in 10.0 mi West 6.9 mph - N/A   Overcast
10:15 PM 23.0 °F 14.7 °F 15.8 °F 74% 29.92 in 10.0 mi WSW 6.9 mph - N/A   Overcast
10:35 PM 23.0 °F 13.9 °F 15.8 °F 74% 29.92 in 10.0 mi WSW 8.1 mph - N/A   Overcast
10:55 PM 23.0 °F 13.9 °F 14.0 °F 68% 29.92 in 10.0 mi West 8.1 mph - N/A   Overcast
11:15 PM 21.2 °F 10.9 °F 14.0 °F 74% 29.92 in 10.0 mi West 9.2 mph - N/A   Overcast
11:35 PM 21.2 °F 12.6 °F 14.0 °F 74% 29.93 in 10.0 mi West 6.9 mph - N/A   Mostly Cloudy
11:55 PM 19.4 °F 10.4 °F 14.0 °F 80% 29.94 in 10.0 mi West 6.9 mph - N/A   Mostly Cloudy